Showing default

ESSA 8 (TOS-F), 3615

Orbit data source: Space-Track

ESSA 8 (TOS-F), 3615 is a payload satellite owned by ESSA (US) in SSO that was launched on Sun, 15 Dec 1968 UTC via a THOR DELTA N launch vehicle from the Air Force Western Test Range (AFWTR). Payload-class satellites include a variety of spacecraft equipped with specific instruments for various scientific and technological missions. These include communications satellites like Starlink; space stations such as the ISS; scientific satellites like the Hubble; Earth observation satellites from companies like Planet Labs, Umbra, and HawkEye 360; GPS; miniature CubeSats for education and research; and military/defense satellites.

Loading next visibility...
Identifier
3615, 1968-114A
Orbit
SSO
Country
Flag of USUS
Related business
Manufacturer
RCA/East Windsor
Mission
Non-operational spacecraft
Bus & Motor
TIROS I, Unknown motor
Mass
131 kg wet, 131 kg dry
Launch date (UTC)
1968-12-15 (57 years ago)
Launch vehicle
THOR DELTA N
Launch site
Air Force Western Test Range (AFWTR)
Object type
Payload
Rocket body
Debris
Shape & HBR
Unknown
Radar Cross Section
Medium (>0.1 m² and <1 m²)

Expand to show TLE details & history
Last TLE update: 17 hours ago

TLE from 17 hours ago
0 ESSA 8 (TOS-F)
1 03615U 68114A   26036.74062516 -.00000027  00000-0  11006-3 0  9994
2 03615 101.6847 347.3796 0031672 217.5634 142.3227 12.56247455620055
Epoch: 2026-02-05T17:46Z
TLE epoch observation values (Epoch: 2026-02-05T17:46:30.013Z)
Latitude
-0.00003°
Longitude
-55.13396°
Altitude
1,460.682 km
Speed
7.123 km/s
True Right ascension
23h 09m 31s
True Declination
0° 00' 00"
Sunlit
Object was in daylight at epoch
Visualization orbit readout
Latitude
Unknown
Longitude
Unknown
Altitude
Unknown
Speed
Unknown
Apparent Right ascension
Unknown
Apparent Declination
Unknown
Sunlit
N/A
Visualization observer readout
Local Sidereal Time
13:05:38
Azimuth
Unknown
Elevation
Unknown
Doppler factor
Unknown
Orbital elements
Apogee altitude
1,460.756 km
Perigee altitude
1,411.258 km
Semi-major axis
7,814.144 km
Eccentricity
0.00317
Inclination
101.6847°
RAAN
347.3796°
Arg. of periapsis
217.5634°
True anomaly
142.54384°
Mean anomaly
142.3227°
Eccentric anomaly
142.43334°
Mean motion
3.14211 °/min
Orbital period
114.57 mins
BSTAR
0.00011006
Loading maneuver chart data...
Computing Atmospheric mass density...
Loading historical data...
Loading historical data...
Loading historical data...
Loading historical data...
Loading historical data...
Loading historical data...
Loading historical data...

Documentation

Showing up to 5 results
|